• In Slovakia
  • List of Countries
  • For 7 days
  • Water Temperature
  • Satellite Maps
  • Weather Map
  • Weather Widgets
  • user-avatar
    Login

    Hourly Weather Yulara

    Today, 20 February, Tuesday

    Time Temperature Precipitation Wind Pressure Humidity
    00:00 +35°C° 0 mm 4 mps 713 mmHg 39%
    01:00 +34°C° 0 mm 3 mps 713 mmHg 40%
    02:00 +34°C° 0 mm 3 mps 713 mmHg 41%
    03:00 +34°C° 0 mm 2 mps 712 mmHg 44%
    04:00 +32°C° 0.3 mm 2 mps 712 mmHg 46%
    05:00 +31°C° 0.3 mm 2 mps 713 mmHg 48%
    06:00 +31°C° 0.3 mm 2 mps 713 mmHg 49%
    07:00 +33°C° 0 mm 3 mps 713 mmHg 47%
    08:00 +34°C° 0 mm 3 mps 714 mmHg 46%
    09:00 +35°C° 0 mm 4 mps 714 mmHg 39%
    10:00 +36°C° 0 mm 5 mps 714 mmHg 38%
    11:00 +37°C° 0 mm 5 mps 714 mmHg 36%
    12:00 +39°C° 0 mm 6 mps 713 mmHg 34%
    13:00 +39°C° 0 mm 6 mps 713 mmHg 33%
    14:00 +39°C° 0 mm 6 mps 712 mmHg 31%
    15:00 +40°C° 0 mm 6 mps 712 mmHg 30%
    16:00 +40°C° 0 mm 5 mps 712 mmHg 29%
    17:00 +40°C° 0 mm 5 mps 712 mmHg 29%
    18:00 +39°C° 0 mm 5 mps 712 mmHg 28%
    19:00 +38°C° 0 mm 4 mps 712 mmHg 30%
    20:00 +37°C° 0 mm 3 mps 712 mmHg 31%
    21:00 +37°C° 0 mm 3 mps 712 mmHg 32%
    22:00 +36°C° 0 mm 3 mps 712 mmHg 35%
    23:00 +35°C° 0 mm 3 mps 712 mmHg 37%

    Tomorrow, 21 February, Wednesday

    Time Temperature Precipitation Wind Pressure Humidity
    00:00 +35°C° 0 mm 3 mps 712 mmHg 39%
    01:00 +34°C° 0 mm 3 mps 712 mmHg 41%
    02:00 +34°C° 0 mm 3 mps 712 mmHg 43%
    03:00 +33°C° 0 mm 3 mps 712 mmHg 44%
    04:00 +33°C° 0 mm 3 mps 712 mmHg 45%
    05:00 +31°C° 0 mm 3 mps 712 mmHg 45%
    06:00 +32°C° 0 mm 4 mps 712 mmHg 45%
    07:00 +33°C° 0 mm 4 mps 712 mmHg 41%
    08:00 +34°C° 0 mm 4 mps 712 mmHg 37%
    09:00 +35°C° 0 mm 4 mps 713 mmHg 33%
    10:00 +36°C° 0 mm 4 mps 712 mmHg 31%
    11:00 +37°C° 0 mm 4 mps 712 mmHg 28%
    12:00 +38°C° 0 mm 4 mps 712 mmHg 26%
    13:00 +40°C° 0 mm 4 mps 711 mmHg 24%
    14:00 +41°C° 0 mm 5 mps 711 mmHg 23%
    15:00 +41°C° 0 mm 5 mps 710 mmHg 22%
    16:00 +41°C° 0 mm 5 mps 710 mmHg 22%
    17:00 +41°C° 0 mm 5 mps 710 mmHg 23%
    18:00 +40°C° 0 mm 5 mps 710 mmHg 23%
    19:00 +40°C° 0 mm 4 mps 711 mmHg 25%
    20:00 +38°C° 0 mm 4 mps 711 mmHg 26%
    21:00 +38°C° 0 mm 3 mps 712 mmHg 28%
    22:00 +37°C° 0 mm 4 mps 711 mmHg 29%
    23:00 +36°C° 0 mm 4 mps 711 mmHg 30%

    Day after tomorrow, 22 February, Thursday

    Time Temperature Precipitation Wind Pressure Humidity
    00:00 +36°C° 0 mm 4 mps 711 mmHg 32%
    01:00 +35°C° 0 mm 4 mps 711 mmHg 33%
    02:00 +34°C° 0 mm 4 mps 711 mmHg 35%
    03:00 +33°C° 0 mm 4 mps 710 mmHg 36%
    04:00 +33°C° 0 mm 4 mps 711 mmHg 41%
    05:00 +32°C° 0 mm 4 mps 711 mmHg 45%
    06:00 +32°C° 0 mm 4 mps 711 mmHg 50%
    07:00 +33°C° 0 mm 4 mps 712 mmHg 47%
    08:00 +34°C° 0 mm 5 mps 712 mmHg 44%
    09:00 +35°C° 0 mm 5 mps 713 mmHg 42%
    10:00 +36°C° 0 mm 4 mps 712 mmHg 38%
    11:00 +37°C° 0 mm 4 mps 712 mmHg 34%
    12:00 +40°C° 0 mm 4 mps 712 mmHg 29%
    13:00 +40°C° 0 mm 4 mps 712 mmHg 28%
    14:00 +39°C° 0 mm 3 mps 711 mmHg 27%
    15:00 +40°C° 0 mm 3 mps 711 mmHg 25%
    16:00 +39°C° 0 mm 3 mps 711 mmHg 26%
    17:00 +39°C° 0 mm 3 mps 711 mmHg 26%
    18:00 +39°C° 0 mm 3 mps 711 mmHg 27%
    19:00 +38°C° 0 mm 4 mps 711 mmHg 29%
    20:00 +38°C° 0 mm 4 mps 712 mmHg 30%
    21:00 +37°C° 0 mm 4 mps 712 mmHg 32%
    22:00 +37°C° 0 mm 5 mps 712 mmHg 34%
    23:00 +36°C° 0 mm 6 mps 712 mmHg 36%

    23 February, Friday

    Time Temperature Precipitation Wind Pressure Humidity
    00:00 +35°C° 0 mm 6 mps 712 mmHg 38%
    01:00 +34°C° 0 mm 7 mps 712 mmHg 40%
    02:00 +33°C° 0 mm 7 mps 712 mmHg 42%
    03:00 +32°C° 0 mm 8 mps 712 mmHg 44%
    04:00 +31°C° 0.1 mm 8 mps 712 mmHg 47%
    05:00 +29°C° 0.1 mm 7 mps 712 mmHg 51%
    06:00 +29°C° 0.1 mm 7 mps 713 mmHg 54%
    07:00 +30°C° 0 mm 7 mps 714 mmHg 52%
    08:00 +30°C° 0 mm 7 mps 714 mmHg 49%
    09:00 +32°C° 0 mm 7 mps 715 mmHg 47%
    10:00 +34°C° 0 mm 7 mps 715 mmHg 43%
    11:00 +35°C° 0 mm 6 mps 714 mmHg 39%
    12:00 +37°C° 0 mm 5 mps 714 mmHg 35%
    13:00 +37°C° 0 mm 5 mps 714 mmHg 34%
    14:00 +39°C° 0 mm 5 mps 713 mmHg 33%
    15:00 +38°C° 0 mm 4 mps 712 mmHg 32%
    16:00 +39°C° 0 mm 5 mps 713 mmHg 32%
    17:00 +39°C° 0 mm 5 mps 713 mmHg 33%
    18:00 +38°C° 0 mm 6 mps 713 mmHg 33%
    19:00 +38°C° 0 mm 6 mps 713 mmHg 34%
    20:00 +36°C° 0 mm 6 mps 714 mmHg 35%
    21:00 +35°C° 0 mm 6 mps 714 mmHg 36%
    22:00 +35°C° 0 mm 7 mps 714 mmHg 36%
    23:00 +34°C° 0 mm 7 mps 715 mmHg 36%

    24 February, Saturday

    Time Temperature Precipitation Wind Pressure Humidity
    00:00 +33°C° 0 mm 7 mps 715 mmHg 36%
    01:00 +33°C° 0 mm 8 mps 714 mmHg 37%
    02:00 +32°C° 0 mm 8 mps 714 mmHg 38%
    03:00 +31°C° 0 mm 8 mps 714 mmHg 39%
    04:00 +29°C° 0 mm 8 mps 715 mmHg 43%
    05:00 +28°C° 0 mm 8 mps 715 mmHg 47%
    06:00 +27°C° 0 mm 9 mps 716 mmHg 51%
    07:00 +28°C° 0 mm 8 mps 716 mmHg 50%
    08:00 +28°C° 0 mm 8 mps 717 mmHg 49%
    09:00 +29°C° 0 mm 8 mps 717 mmHg 48%
    10:00 +30°C° 0 mm 7 mps 717 mmHg 44%
    11:00 +33°C° 0 mm 7 mps 717 mmHg 40%
    12:00 +34°C° 0 mm 6 mps 717 mmHg 35%
    13:00 +35°C° 0 mm 6 mps 716 mmHg 33%
    14:00 +36°C° 0 mm 5 mps 716 mmHg 31%
    15:00 +37°C° 0 mm 5 mps 716 mmHg 29%
    16:00 +36°C° 0 mm 5 mps 716 mmHg 29%
    17:00 +36°C° 0 mm 5 mps 716 mmHg 28%
    18:00 +36°C° 0 mm 6 mps 716 mmHg 28%
    19:00 +35°C° 0 mm 7 mps 716 mmHg 27%
    20:00 +34°C° 0 mm 8 mps 717 mmHg 26%
    21:00 +33°C° 0 mm 9 mps 717 mmHg 26%
    22:00 +32°C° 0 mm 9 mps 717 mmHg 27%
    23:00 +31°C° 0 mm 9 mps 717 mmHg 28%

    25 February, Sunday

    Time Temperature Precipitation Wind Pressure Humidity
    00:00 +29°C° 0 mm 9 mps 717 mmHg 29%
    01:00 +29°C° 0 mm 8 mps 716 mmHg 29%
    02:00 +28°C° 0 mm 8 mps 716 mmHg 30%
    03:00 +27°C° 0 mm 7 mps 716 mmHg 30%
    04:00 +27°C° 0 mm 7 mps 716 mmHg 32%
    05:00 +26°C° 0 mm 7 mps 717 mmHg 33%
    06:00 +24°C° 0 mm 7 mps 717 mmHg 34%
    07:00 +26°C° 0 mm 8 mps 717 mmHg 33%
    08:00 +27°C° 0 mm 9 mps 717 mmHg 31%
    09:00 +28°C° 0 mm 9 mps 718 mmHg 29%
    10:00 +31°C° 0 mm 9 mps 717 mmHg 26%
    11:00 +32°C° 0 mm 8 mps 717 mmHg 23%
    12:00 +34°C° 0 mm 8 mps 717 mmHg 20%
    13:00 +35°C° 0 mm 7 mps 716 mmHg 18%
    14:00 +36°C° 0 mm 7 mps 715 mmHg 16%
    15:00 +36°C° 0 mm 6 mps 715 mmHg 14%
    16:00 +36°C° 0 mm 6 mps 715 mmHg 15%
    17:00 +36°C° 0 mm 6 mps 715 mmHg 15%
    18:00 +35°C° 0 mm 6 mps 715 mmHg 15%
    19:00 +34°C° 0 mm 5 mps 715 mmHg 17%
    20:00 +33°C° 0 mm 5 mps 715 mmHg 19%
    21:00 +32°C° 0 mm 4 mps 716 mmHg 21%
    22:00 +30°C° 0 mm 4 mps 716 mmHg 23%
    23:00 +29°C° 0 mm 4 mps 716 mmHg 24%
    Show more